| time (UTC) | temp F | wind direction | speed MPH | gust MPH | rain 1hr in | rain 24hr in | rain mn in | humidity % | barometer mb |
| 20260905062402 | 73 | 177 | 0.0 | 3.0 | 0.00 | 0.00 | 0.00 | 1012.9 | |
| 20260905061924 | 73 | 172 | 0.0 | 3.0 | 0.00 | 0.00 | 0.00 | 1012.6 | |
| 20260905061403 | 73 | 180 | 0.0 | 6.0 | 0.00 | 0.00 | 0.00 | 1012.6 | |
| 20260905060903 | 73 | 160 | 0.0 | 6.0 | 0.00 | 0.00 | 0.00 | 1012.9 | |
| 20260905060403 | 73 | 169 | 0.0 | 4.0 | 0.00 | 0.00 | 0.00 | 1013.2 | |
| 20260905055903 | 73 | 169 | 0.0 | 4.0 | 0.00 | 0.00 | 0.00 | 1012.9 | |
| 20260905055403 | 73 | 149 | 0.0 | 6.0 | 0.00 | 0.00 | 0.00 | 1013.2 | |
| 20260905054924 | 73 | 150 | 0.0 | 6.0 | 0.00 | 0.00 | 0.00 | 1013.6 | |
| 20260905054403 | 73 | 149 | 0.0 | 6.0 | 0.00 | 0.00 | 0.00 | 1013.6 | |
| 20260905053903 | 73 | 147 | 0.0 | 6.0 | 0.00 | 0.00 | 0.00 | 1013.6 | |
| 20260905053424 | 73 | 147 | 0.0 | 6.0 | 0.00 | 0.00 | 0.00 | 1013.6 | |
| 20260905052903 | 73 | 178 | 0.0 | 6.0 | 0.00 | 0.00 | 0.00 | 1012.9 | |
| 20260905052403 | 73 | 180 | 0.0 | 6.0 | 0.00 | 0.00 | 0.00 | 1012.9 | |
| 20260905050924 | 72 | 158 | 0.0 | 6.0 | 0.00 | 0.00 | 0.00 | 1013.9 | |
| 20260905050444 | 73 | 158 | 0.0 | 6.0 | 0.00 | 0.00 | 0.00 | 1013.9 | |
| 20260905045903 | 73 | 67 | 0.0 | 6.0 | 0.00 | 0.00 | 0.00 | 1013.2 | |
| 20260905045403 | 73 | 203 | 0.0 | 6.0 | 0.00 | 0.00 | 0.00 | 1014.3 | |
| 20260905044903 | 73 | 46 | 0.0 | 6.0 | 0.00 | 0.00 | 0.00 | 1013.9 | |
| 20260905044403 | 73 | 33 | 0.0 | 6.0 | 0.00 | 0.00 | 0.00 | 1013.9 | |
| 20260905043903 | 73 | 97 | 0.0 | 6.0 | 0.00 | 0.00 | 0.00 | 1013.9 | |
| 20260905043403 | 73 | 120 | 1.0 | 6.0 | 0.00 | 0.00 | 0.00 | 1013.9 | |
| 20260905042902 | 73 | 158 | 0.0 | 6.0 | 0.00 | 0.00 | 0.00 | 1013.9 | |
| 20260905042403 | 73 | 115 | 0.0 | 6.0 | 0.00 | 0.00 | 0.00 | 1013.9 | |
| 20260905041903 | 73 | 144 | 0.0 | 6.0 | 0.00 | 0.00 | 0.00 | 1013.9 | |
| 20260905041403 | 74 | 156 | 0.0 | 6.0 | 0.00 | 0.00 | 0.00 | 1014.6 | |
| 20260905040904 | 73 | 135 | 0.0 | 6.0 | 0.00 | 0.00 | 0.00 | 1014.3 | |
| 20260905040403 | 73 | 120 | 0.0 | 6.0 | 0.00 | 0.00 | 0.00 | 1014.6 | |
| 20260905035924 | 73 | 156 | 0.0 | 4.0 | 0.00 | 0.00 | 0.00 | 1013.6 | |
| 20260905035424 | 73 | 135 | 0.0 | 6.0 | 0.00 | 0.00 | 0.00 | 1013.9 | |
| 20260905034903 | 73 | 121 | 0.0 | 6.0 | 0.00 | 0.00 | 0.00 | 1013.9 | |
| 20260905034402 | 73 | 158 | 0.0 | 6.0 | 0.00 | 0.00 | 0.00 | 1014.6 | |
| 20260905033903 | 73 | 141 | 0.0 | 6.0 | 0.00 | 0.00 | 0.00 | 1013.9 | |
| 20260905033403 | 73 | 143 | 0.0 | 6.0 | 0.00 | 0.00 | 0.00 | 1014.3 | |
| 20260905032924 | 74 | 146 | 0.0 | 6.0 | 0.00 | 0.00 | 0.00 | 1014.3 | |
| 20260905032402 | 73 | 156 | 0.0 | 6.0 | 0.00 | 0.00 | 0.00 | 1013.9 | |
| 20260905031903 | 74 | 146 | 0.0 | 5.0 | 0.00 | 0.00 | 0.00 | 1014.6 | |
| 20260905031402 | 74 | 158 | 0.0 | 5.0 | 0.00 | 0.00 | 0.00 | 1014.3 | |
| 20260905030903 | 74 | 162 | 0.0 | 6.0 | 0.00 | 0.00 | 0.00 | 1014.3 | |
| 20260905030403 | 73 | 131 | 0.0 | 6.0 | 0.00 | 0.00 | 0.00 | 1014.3 | |
| 20260905025903 | 73 | 138 | 0.0 | 6.0 | 0.00 | 0.00 | 0.00 | 1013.9 | |
| 20260905025403 | 73 | 45 | 0.0 | 4.0 | 0.00 | 0.00 | 0.00 | 1013.9 | |
| 20260905024902 | 73 | 74 | 0.0 | 6.0 | 0.00 | 0.00 | 0.00 | 1013.6 | |
| 20260905024403 | 73 | 202 | 1.0 | 6.0 | 0.00 | 0.00 | 0.00 | 1014.3 | |
| 20260905023902 | 73 | 180 | 0.0 | 0.0 | 0.00 | 0.00 | 0.00 | 1014.3 | |
| 20260905023403 | 73 | 68 | 0.0 | 5.0 | 0.00 | 0.00 | 0.00 | 1013.9 | |
| 20260905022924 | 73 | 84 | 0.0 | 5.0 | 0.00 | 0.00 | 0.00 | 1013.9 | |
| 20260905022425 | 73 | 360 | 0.0 | 5.0 | 0.00 | 0.00 | 0.00 | 1013.9 | |
| 20260905021924 | 73 | 203 | 0.0 | 0.0 | 0.00 | 0.00 | 0.00 | 1013.9 | |
| 20260905021403 | 74 | 203 | 0.0 | 0.0 | 0.00 | 0.00 | 0.00 | 1014.3 | |
| 20260905020902 | 73 | 248 | 0.0 | 2.0 | 0.00 | 0.00 | 0.00 | 1014.3 | |
| 20260905020424 | 73 | 90 | 0.0 | 2.0 | 0.00 | 0.00 | 0.00 | 1014.3 | |
| 20260905015903 | 73 | 45 | 0.0 | 0.0 | 0.00 | 0.00 | 0.00 | 1013.6 | |
| 20260905015403 | 73 | 203 | 0.0 | 0.0 | 0.00 | 0.00 | 0.00 | 1013.2 | |
| 20260905014903 | 73 | 225 | 0.0 | 6.0 | 0.00 | 0.00 | 0.00 | 1013.6 | |
| 20260905014425 | 73 | 225 | 0.0 | 6.0 | 0.00 | 0.00 | 0.00 | 1013.6 | |
| 20260905013903 | 73 | 203 | 0.0 | 0.0 | 0.00 | 0.00 | 0.00 | 1013.6 | |
| 20260905013424 | 73 | 158 | 0.0 | 0.0 | 0.00 | 0.00 | 0.00 | 1013.6 | |
| 20260905012903 | 73 | 158 | 0.0 | 0.0 | 0.00 | 0.00 | 0.00 | 1013.6 | |
| 20260905012403 | 73 | 293 | 0.0 | 0.0 | 0.00 | 0.00 | 0.00 | 1013.2 | |
| 20260905011924 | 73 | 270 | 0.0 | 0.0 | 0.00 | 0.00 | 0.00 | 1013.6 | |
| 20260905011402 | 73 | 248 | 0.0 | 1.0 | 0.00 | 0.00 | 0.00 | 1013.2 | |
| 20260905010903 | 74 | 203 | 0.0 | 6.0 | 0.00 | 0.00 | 0.00 | 1013.6 | |
| 20260905010403 | 74 | 198 | 0.0 | 6.0 | 0.00 | 0.00 | 0.00 | 1013.6 | |
| 20260905005903 | 73 | 90 | 0.0 | 0.0 | 0.00 | 0.00 | 0.00 | 1012.9 | |
| 20260905005424 | 73 | 45 | 0.0 | 0.0 | 0.00 | 0.00 | 0.00 | 1012.9 | |
| 20260905004903 | 73 | 360 | 0.0 | 0.0 | 0.00 | 0.00 | 0.00 | 1012.9 | |
| 20260905004403 | 74 | 315 | 0.0 | 0.0 | 0.00 | 0.00 | 0.00 | 1013.2 | |
| 20260905003903 | 73 | 248 | 0.0 | 0.0 | 0.00 | 0.00 | 0.00 | 1012.6 | |
| 20260905003403 | 74 | 23 | 0.0 | 6.0 | 0.00 | 0.00 | 0.00 | 1012.9 | |
| 20260905002903 | 74 | 292 | 1.0 | 6.0 | 0.00 | 0.00 | 0.00 | 1012.6 | |
| 20260905002403 | 74 | 310 | 1.0 | 6.0 | 0.00 | 0.00 | 0.00 | 1012.6 | |
| 20260905001903 | 74 | 300 | 0.0 | 6.0 | 0.00 | 0.00 | 0.00 | 1012.6 | |
| 20260905001403 | 74 | 270 | 0.0 | 6.0 | 0.00 | 0.00 | 0.00 | 1013.2 | |
| 20260905000903 | 74 | 27 | 0.0 | 6.0 | 0.00 | 0.00 | 0.00 | 1012.9 | |
| 20260905000403 | 75 | 52 | 0.0 | 6.0 | 0.00 | 0.00 | 0.00 | 1013.2 | |
| 20260904235903 | 75 | 253 | 0.0 | 6.0 | 0.00 | 0.00 | 0.00 | 1012.6 | |
| 20260904235403 | 75 | 243 | 0.0 | 6.0 | 0.00 | 0.00 | 0.00 | 1012.9 | |
| 20260904234903 | 75 | 277 | 1.0 | 6.0 | 0.00 | 0.00 | 0.00 | 1012.2 | |
| 20260904234403 | 75 | 260 | 0.0 | 6.0 | 0.00 | 0.00 | 0.00 | 1012.9 | |
| 20260904233903 | 76 | 251 | 1.0 | 6.0 | 0.00 | 0.00 | 0.00 | 1012.2 | |
| 20260904233404 | 76 | 281 | 2.0 | 6.0 | 0.00 | 0.00 | 0.00 | 1012.9 | |
| 20260904232903 | 76 | 261 | 2.0 | 6.0 | 0.00 | 0.00 | 0.00 | 1012.6 | |
| 20260904232403 | 76 | 269 | 0.0 | 3.0 | 0.00 | 0.00 | 0.00 | 1012.2 | |
| 20260904231903 | 76 | 246 | 1.0 | 5.0 | 0.00 | 0.00 | 0.00 | 1012.6 | |
| 20260904231403 | 76 | 264 | 2.0 | 5.0 | 0.00 | 0.00 | 0.00 | 1012.6 | |
| 20260904225903 | 77 | 205 | 2.0 | 8.0 | 0.00 | 0.00 | 0.00 | 1013.2 | |
| 20260904225424 | 79 | 252 | 1.0 | 8.0 | 0.00 | 0.00 | 0.00 | 1013.2 | |
| 20260904224903 | 80 | 255 | 1.0 | 6.0 | 0.00 | 0.00 | 0.00 | 1012.9 | |
| 20260904222403 | 80 | 267 | 0.0 | 6.0 | 0.00 | 0.00 | 0.00 | 1013.6 | |
| 20260904221902 | 79 | 206 | 1.0 | 6.0 | 0.00 | 0.00 | 0.00 | 1014.3 | |
| 20260904221425 | 78 | 177 | 1.0 | 7.0 | 0.00 | 0.00 | 0.00 | 1013.9 | |
| 20260904220925 | 78 | 274 | 2.0 | 7.0 | 0.00 | 0.00 | 0.00 | 1013.9 | |
| 20260904220403 | 76 | 208 | 1.0 | 5.0 | 0.00 | 0.00 | 0.00 | 1013.2 | |
| 20260904215903 | 75 | 182 | 2.0 | 5.0 | 0.00 | 0.00 | 0.00 | 1012.6 | |
| 20260904215403 | 74 | 192 | 2.0 | 4.0 | 0.00 | 0.00 | 0.00 | 1012.9 | |
| 20260904214903 | 73 | 190 | 2.0 | 5.0 | 0.00 | 0.00 | 0.00 | 1013.2 | |
| 20260904214402 | 72 | 204 | 1.0 | 5.0 | 0.00 | 0.00 | 0.00 | 1013.2 | |
| 20260904213903 | 72 | 187 | 0.0 | 5.0 | 0.00 | 0.00 | 0.00 | 1013.2 | |
| 20260904213403 | 72 | 186 | 0.0 | 6.0 | 0.00 | 0.00 | 0.00 | 1013.9 | |
| 20260904212404 | 72 | 174 | 0.0 | 6.0 | 0.00 | 0.00 | 0.00 | 1014.3 | |
| 20260904210924 | 72 | 122 | 0.0 | 6.0 | 0.00 | 0.00 | 0.00 | 1014.3 | |
| 20260904210403 | 72 | 184 | 0.0 | 6.0 | 0.00 | 0.00 | 0.00 | 1013.9 | |
| 20260904205903 | 71 | 163 | 1.0 | 6.0 | 0.00 | 0.00 | 0.00 | 1013.6 | |
| 20260904205403 | 71 | 182 | 0.0 | 6.0 | 0.00 | 0.00 | 0.00 | 1013.6 | |
| 20260904204903 | 71 | 186 | 0.0 | 6.0 | 0.00 | 0.00 | 0.00 | 1014.3 | |
| 20260904204424 | 71 | 172 | 0.0 | 5.0 | 0.00 | 0.00 | 0.00 | 1013.9 | |
| 20260904203903 | 70 | 150 | 3.0 | 5.0 | 0.00 | 0.00 | 0.00 | 1014.3 | |
| 20260904203403 | 70 | 176 | 0.0 | 5.0 | 0.00 | 0.00 | 0.00 | 1014.3 | |
| 20260904202903 | 70 | 151 | 4.0 | 6.0 | 0.00 | 0.00 | 0.00 | 1014.6 | |
| 20260904202424 | 70 | 180 | 0.0 | 15.0 | 0.00 | 0.00 | 0.00 | 1014.9 | |
| 20260904201903 | 70 | 349 | 4.0 | 19.0 | 0.00 | 0.00 | 0.00 | 1015.6 | |
| 20260904200403 | 79 | 315 | 10.0 | 24.0 | 0.00 | 0.00 | 0.00 | 1017.0 | |
| 20260904195903 | 84 | 338 | 6.0 | 22.0 | 0.00 | 0.00 | 0.00 | 1016.6 | |
| 20260904195424 | 86 | 56 | 11.0 | 22.0 | 0.00 | 0.00 | 0.00 | 1014.6 | |
| 20260904194903 | 94 | 4 | 7.0 | 21.0 | 0.00 | 0.00 | 0.00 | 1014.6 | |
| 20260904194424 | 96 | 292 | 9.0 | 21.0 | 0.00 | 0.00 | 0.00 | 1013.9 | |
| 20260904193903 | 96 | 291 | 5.0 | 19.0 | 0.00 | 0.00 | 0.00 | 1014.3 | |
| 20260904193403 | 96 | 286 | 10.0 | 19.0 | 0.00 | 0.00 | 0.00 | 1013.9 | |
| 20260904192925 | 96 | 285 | 6.0 | 13.0 | 0.00 | 0.00 | 0.00 | 1013.9 | |
| 20260904192424 | 96 | 299 | 4.0 | 10.0 | 0.00 | 0.00 | 0.00 | 1013.6 | |
| 20260904191903 | 96 | 277 | 4.0 | 10.0 | 0.00 | 0.00 | 0.00 | 1013.6 | |
| 20260904191403 | 96 | 193 | 3.0 | 7.0 | 0.00 | 0.00 | 0.00 | 1013.9 | |
| 20260904190903 | 96 | 204 | 3.0 | 11.0 | 0.00 | 0.00 | 0.00 | 1013.2 | |
| 20260904190403 | 96 | 216 | 3.0 | 11.0 | 0.00 | 0.00 | 0.00 | 1013.9 | |
| 20260904185903 | 96 | 268 | 3.0 | 8.0 | 0.00 | 0.00 | 0.00 | 1013.6 | |
| 20260904185403 | 96 | 292 | 3.0 | 14.0 | 0.00 | 0.00 | 0.00 | 1014.3 | |
| 20260904184903 | 95 | 289 | 4.0 | 14.0 | 0.00 | 0.00 | 0.00 | 1013.9 | |
| 20260904184403 | 95 | 312 | 4.0 | 11.0 | 0.00 | 0.00 | 0.00 | 1014.3 | |
| 20260904183903 | 95 | 302 | 4.0 | 14.0 | 0.00 | 0.00 | 0.00 | 1014.3 | |
| 20260904183403 | 95 | 286 | 7.0 | 14.0 | 0.00 | 0.00 | 0.00 | 1014.6 | |
| 20260904182903 | 95 | 276 | 5.0 | 11.0 | 0.00 | 0.00 | 0.00 | 1014.9 | |
| 20260904182403 | 95 | 303 | 5.0 | 14.0 | 0.00 | 0.00 | 0.00 | 1014.6 | |
| 20260904181903 | 94 | 288 | 8.0 | 14.0 | 0.00 | 0.00 | 0.00 | 1014.6 | |
| 20260904181403 | 94 | 285 | 5.0 | 13.0 | 0.00 | 0.00 | 0.00 | 1014.6 | |
| 20260904180903 | 94 | 301 | 3.0 | 12.0 | 0.00 | 0.00 | 0.00 | 1014.3 | |
| 20260904180403 | 94 | 299 | 5.0 | 14.0 | 0.00 | 0.00 | 0.00 | 1014.3 | |
| 20260904175903 | 94 | 301 | 5.0 | 14.0 | 0.00 | 0.00 | 0.00 | 1014.9 | |
| 20260904175424 | 94 | 291 | 4.0 | 12.0 | 0.00 | 0.00 | 0.00 | 1014.6 | |
| 20260904174903 | 94 | 306 | 5.0 | 12.0 | 0.00 | 0.00 | 0.00 | 1015.3 | |
| 20260904174403 | 93 | 310 | 5.0 | 14.0 | 0.00 | 0.00 | 0.00 | 1014.9 | |
| 20260904172903 | 93 | 268 | 6.0 | 13.0 | 0.00 | 0.00 | 0.00 | 1015.6 | |
| 20260904172402 | 93 | 283 | 7.0 | 15.0 | 0.00 | 0.00 | 0.00 | 1015.3 | |
| 20260904171903 | 93 | 294 | 5.0 | 17.0 | 0.00 | 0.00 | 0.00 | 1014.9 | |
| 20260904171402 | 94 | 293 | 8.0 | 17.0 | 0.00 | 0.00 | 0.00 | 1015.3 | |
| 20260904170903 | 93 | 276 | 5.0 | 14.0 | 0.00 | 0.00 | 0.00 | 1015.3 | |
| 20260904170424 | 92 | 270 | 7.0 | 14.0 | 0.00 | 0.00 | 0.00 | 1015.6 | |
| 20260904165903 | 93 | 294 | 5.0 | 15.0 | 0.00 | 0.00 | 0.00 | 1016.0 | |
| 20260904165424 | 92 | 316 | 4.0 | 16.0 | 0.00 | 0.00 | 0.00 | 1015.6 | |
| 20260904164903 | 92 | 304 | 8.0 | 17.0 | 0.00 | 0.00 | 0.00 | 1016.0 | |
| 20260904164403 | 92 | 313 | 7.0 | 17.0 | 0.00 | 0.00 | 0.00 | 1016.0 | |
| 20260904163903 | 92 | 285 | 9.0 | 13.0 | 0.00 | 0.00 | 0.00 | 1015.6 | |
| 20260904163403 | 92 | 315 | 6.0 | 14.0 | 0.00 | 0.00 | 0.00 | 1015.6 | |
| 20260904162903 | 92 | 285 | 6.0 | 14.0 | 0.00 | 0.00 | 0.00 | 1015.6 | |
| 20260904162403 | 92 | 279 | 7.0 | 11.0 | 0.00 | 0.00 | 0.00 | 1016.0 | |
| 20260904161903 | 92 | 315 | 4.0 | 12.0 | 0.00 | 0.00 | 0.00 | 1015.6 | |
| 20260904161403 | 91 | 293 | 6.0 | 12.0 | 0.00 | 0.00 | 0.00 | 1015.3 | |
| 20260904160902 | 91 | 295 | 5.0 | 15.0 | 0.00 | 0.00 | 0.00 | 1016.0 | |
| 20260904160403 | 91 | 285 | 7.0 | 15.0 | 0.00 | 0.00 | 0.00 | 1015.3 | |
| 20260904155924 | 91 | 288 | 4.0 | 10.0 | 0.00 | 0.00 | 0.00 | 1015.3 | |
| 20260904155404 | 91 | 276 | 2.0 | 11.0 | 0.00 | 0.00 | 0.00 | 1016.0 | |
| 20260904154903 | 90 | 287 | 6.0 | 11.0 | 0.00 | 0.00 | 0.00 | 1016.0 | |
| 20260904154403 | 90 | 251 | 3.0 | 11.0 | 0.00 | 0.00 | 0.00 | 1016.0 | |
| 20260904153903 | 90 | 271 | 3.0 | 9.0 | 0.00 | 0.00 | 0.00 | 1016.0 | |
| 20260904153403 | 90 | 299 | 3.0 | 9.0 | 0.00 | 0.00 | 0.00 | 1016.0 | |
| 20260904152903 | 89 | 288 | 6.0 | 10.0 | 0.00 | 0.00 | 0.00 | 1015.6 | |
| 20260904152424 | 88 | 309 | 6.0 | 10.0 | 0.00 | 0.00 | 0.00 | 1015.6 | |
| 20260904151924 | 88 | 299 | 5.0 | 11.0 | 0.00 | 0.00 | 0.00 | 1015.6 | |
| 20260904151403 | 88 | 293 | 6.0 | 11.0 | 0.00 | 0.00 | 0.00 | 1016.0 | |
| 20260904150903 | 88 | 275 | 5.0 | 11.0 | 0.00 | 0.00 | 0.00 | 1015.6 | |
| 20260904150403 | 88 | 303 | 3.0 | 11.0 | 0.00 | 0.00 | 0.00 | 1014.9 | |
| 20260904145903 | 88 | 284 | 3.0 | 9.0 | 0.00 | 0.00 | 0.00 | 1015.6 | |
| 20260904145402 | 87 | 292 | 4.0 | 12.0 | 0.00 | 0.00 | 0.00 | 1015.6 | |
| 20260904144903 | 86 | 286 | 6.0 | 15.0 | 0.00 | 0.00 | 0.00 | 1016.3 | |
| 20260904144403 | 86 | 280 | 5.0 | 15.0 | 0.00 | 0.00 | 0.00 | 1016.0 | |
| 20260904143903 | 86 | 283 | 5.0 | 10.0 | 0.00 | 0.00 | 0.00 | 1016.0 | |
| 20260904143424 | 86 | 288 | 5.0 | 10.0 | 0.00 | 0.00 | 0.00 | 1016.0 | |
| 20260904142902 | 86 | 256 | 4.0 | 10.0 | 0.00 | 0.00 | 0.00 | 1015.6 | |
| 20260904142403 | 86 | 282 | 4.0 | 9.0 | 0.00 | 0.00 | 0.00 | 1014.9 | |
| 20260904141902 | 85 | 280 | 4.0 | 9.0 | 0.00 | 0.00 | 0.00 | 1014.9 | |
| 20260904141403 | 85 | 267 | 5.0 | 8.0 | 0.00 | 0.00 | 0.00 | 1015.3 | |
| 20260904140924 | 85 | 265 | 4.0 | 12.0 | 0.00 | 0.00 | 0.00 | 1015.6 | |
| 20260904140403 | 85 | 271 | 5.0 | 12.0 | 0.00 | 0.00 | 0.00 | 1015.6 | |
| 20260904135903 | 85 | 274 | 4.0 | 8.0 | 0.00 | 0.00 | 0.00 | 1015.3 | |
| 20260904135403 | 84 | 284 | 3.0 | 7.0 | 0.00 | 0.00 | 0.00 | 1015.6 | |
| 20260904134903 | 84 | 257 | 2.0 | 5.0 | 0.00 | 0.00 | 0.00 | 1016.0 | |
| 20260904134403 | 84 | 241 | 1.0 | 7.0 | 0.00 | 0.00 | 0.00 | 1015.6 | |
| 20260904133903 | 84 | 214 | 2.0 | 7.0 | 0.00 | 0.00 | 0.00 | 1016.0 | |
| 20260904133403 | 84 | 195 | 1.0 | 5.0 | 0.00 | 0.00 | 0.00 | 1015.3 | |
| 20260904132903 | 84 | 194 | 0.0 | 4.0 | 0.00 | 0.00 | 0.00 | 1015.3 | |
| 20260904132402 | 83 | 110 | 0.0 | 6.0 | 0.00 | 0.00 | 0.00 | 1015.3 | |
| 20260904130903 | 83 | 216 | 1.0 | 3.0 | 0.00 | 0.00 | 0.00 | 1015.6 | |
| 20260904130424 | 82 | 195 | 0.0 | 4.0 | 0.00 | 0.00 | 0.00 | 1015.6 | |
| 20260904125903 | 82 | 232 | 0.0 | 4.0 | 0.00 | 0.00 | 0.00 | 1015.3 | |
| 20260904125403 | 82 | 24 | 0.0 | 6.0 | 0.00 | 0.00 | 0.00 | 1015.3 | |
| 20260904124903 | 81 | 224 | 0.0 | 6.0 | 0.00 | 0.00 | 0.00 | 1015.6 | |
| 20260904124403 | 81 | 225 | 0.0 | 6.0 | 0.00 | 0.00 | 0.00 | 1015.6 | |
| 20260904123903 | 81 | 202 | 0.0 | 6.0 | 0.00 | 0.00 | 0.00 | 1015.3 | |
| 20260904123403 | 81 | 206 | 0.0 | 6.0 | 0.00 | 0.00 | 0.00 | 1016.0 | |
| 20260904122903 | 81 | 209 | 0.0 | 3.0 | 0.00 | 0.00 | 0.00 | 1014.9 | |
| 20260904122403 | 81 | 234 | 0.0 | 3.0 | 0.00 | 0.00 | 0.00 | 1015.6 | |
| 20260904121903 | 80 | 200 | 0.0 | 4.0 | 0.00 | 0.00 | 0.00 | 1014.9 | |
| 20260904121403 | 80 | 156 | 0.0 | 6.0 | 0.00 | 0.00 | 0.00 | 1015.3 | |
| 20260904120924 | 80 | 225 | 0.0 | 6.0 | 0.00 | 0.00 | 0.00 | 1015.3 | |
| 20260904120403 | 80 | 208 | 0.0 | 6.0 | 0.00 | 0.00 | 0.00 | 1014.9 | |
| 20260904115924 | 79 | 213 | 0.0 | 6.0 | 0.00 | 0.00 | 0.00 | 1014.9 | |
| 20260904115403 | 79 | 208 | 0.0 | 6.0 | 0.00 | 0.00 | 0.00 | 1014.9 | |
| 20260904114903 | 79 | 223 | 0.0 | 6.0 | 0.00 | 0.00 | 0.00 | 1015.3 | |
| 20260904114403 | 79 | 180 | 0.0 | 6.0 | 0.00 | 0.00 | 0.00 | 1014.6 | |
| 20260904113903 | 79 | 206 | 0.0 | 6.0 | 0.00 | 0.00 | 0.00 | 1014.6 | |
| 20260904113402 | 78 | 260 | 0.0 | 6.0 | 0.00 | 0.00 | 0.00 | 1014.6 | |
| 20260904112903 | 78 | 190 | 0.0 | 6.0 | 0.00 | 0.00 | 0.00 | 1014.6 | |
| 20260904112402 | 78 | 292 | 0.0 | 5.0 | 0.00 | 0.00 | 0.00 | 1014.6 | |
| 20260904111924 | 78 | 247 | 0.0 | 6.0 | 0.00 | 0.00 | 0.00 | 1014.6 | |
| 20260904111403 | 78 | 247 | 0.0 | 6.0 | 0.00 | 0.00 | 0.00 | 1014.9 | |
| 20260904110903 | 78 | 257 | 0.0 | 6.0 | 0.00 | 0.00 | 0.00 | 1014.9 | |
| 20260904110403 | 78 | 206 | 0.0 | 3.0 | 0.00 | 0.00 | 0.00 | 1014.3 | |
| 20260904105924 | 78 | 208 | 0.0 | 6.0 | 0.00 | 0.00 | 0.00 | 1013.9 | |
| 20260904105403 | 78 | 241 | 0.0 | 6.0 | 0.00 | 0.00 | 0.00 | 1013.9 | |
| 20260904104924 | 78 | 248 | 0.0 | 0.0 | 0.00 | 0.00 | 0.00 | 1014.6 | |
| 20260904104403 | 78 | 225 | 0.0 | 0.0 | 0.00 | 0.00 | 0.00 | 1013.9 | |
| 20260904103903 | 78 | 248 | 0.0 | 6.0 | 0.00 | 0.00 | 0.00 | 1014.3 | |
| 20260904103403 | 78 | 225 | 0.0 | 6.0 | 0.00 | 0.00 | 0.00 | 1014.3 | |
| 20260904102903 | 78 | 241 | 0.0 | 4.0 | 0.00 | 0.00 | 0.00 | 1013.9 | |
| 20260904102424 | 78 | 293 | 0.0 | 6.0 | 0.00 | 0.00 | 0.00 | 1013.9 | |
| 20260904101903 | 78 | 184 | 0.0 | 6.0 | 0.00 | 0.00 | 0.00 | 1014.3 | |
| 20260904101403 | 78 | 251 | 0.0 | 6.0 | 0.00 | 0.00 | 0.00 | 1014.3 | |
| 20260904100903 | 78 | 209 | 0.0 | 2.0 | 0.00 | 0.00 | 0.00 | 1014.3 | |
| 20260904100403 | 78 | 204 | 0.0 | 6.0 | 0.00 | 0.00 | 0.00 | 1014.6 | |
| 20260904095903 | 78 | 202 | 0.0 | 6.0 | 0.00 | 0.00 | 0.00 | 1013.9 | |
| 20260904095424 | 78 | 192 | 0.0 | 5.0 | 0.00 | 0.00 | 0.00 | 1013.9 | |
| 20260904094924 | 77 | 201 | 0.0 | 6.0 | 0.00 | 0.00 | 0.00 | 1013.9 | |
| 20260904094403 | 77 | 201 | 0.0 | 6.0 | 0.00 | 0.00 | 0.00 | 1013.9 | |
| 20260904093902 | 77 | 191 | 0.0 | 6.0 | 0.00 | 0.00 | 0.00 | 1014.3 | |
| 20260904093403 | 77 | 181 | 0.0 | 6.0 | 0.00 | 0.00 | 0.00 | 1014.6 | |
| 20260904092903 | 76 | 196 | 0.0 | 6.0 | 0.00 | 0.00 | 0.00 | 1013.9 | |
| 20260904091403 | 77 | 158 | 0.0 | 0.0 | 0.00 | 0.00 | 0.00 | 1013.9 | |
| 20260904090903 | 77 | 45 | 0.0 | 0.0 | 0.00 | 0.00 | 0.00 | 1013.9 | |
| 20260904090404 | 77 | 68 | 0.0 | 0.0 | 0.00 | 0.00 | 0.00 | 1014.6 | |
| 20260904085924 | 77 | 180 | 0.0 | 0.0 | 0.00 | 0.00 | 0.00 | 1014.3 | |
| 20260904084403 | 78 | 158 | 0.0 | 3.0 | 0.00 | 0.00 | 0.00 | 1013.9 | |
| 20260904083903 | 78 | 180 | 0.0 | 0.0 | 0.00 | 0.00 | 0.00 | 1014.3 | |
| 20260904083403 | 78 | 45 | 0.0 | 0.0 | 0.00 | 0.00 | 0.00 | 1014.6 | |
| 20260904082902 | 79 | 90 | 0.0 | 0.0 | 0.00 | 0.00 | 0.00 | 1013.9 | |
| 20260904082403 | 79 | 203 | 0.0 | 0.0 | 0.00 | 0.00 | 0.00 | 1013.9 | |
| 20260904081903 | 80 | 225 | 0.0 | 6.0 | 0.00 | 0.00 | 0.00 | 1014.3 | |
| 20260904081403 | 80 | 291 | 0.0 | 6.0 | 0.00 | 0.00 | 0.00 | 1014.3 | |
| 20260904080903 | 80 | 285 | 0.0 | 5.0 | 0.00 | 0.00 | 0.00 | 1014.6 | |
| 20260904080402 | 80 | 315 | 0.0 | 6.0 | 0.00 | 0.00 | 0.00 | 1014.6 | |
| 20260904075903 | 80 | 174 | 0.0 | 6.0 | 0.00 | 0.00 | 0.00 | 1014.6 | |
| 20260904075403 | 80 | 239 | 0.0 | 6.0 | 0.00 | 0.00 | 0.00 | 1014.6 | |
| 20260904074903 | 80 | 286 | 1.0 | 6.0 | 0.00 | 0.00 | 0.00 | 1013.9 | |
| 20260904074424 | 80 | 184 | 0.0 | 2.0 | 0.00 | 0.00 | 0.00 | 1013.9 | |
| 20260904073903 | 80 | 208 | 0.0 | 1.0 | 0.00 | 0.00 | 0.00 | 1014.3 | |
| 20260904073403 | 80 | 338 | 0.0 | 6.0 | 0.00 | 0.00 | 0.00 | 1013.9 | |
| 20260904072924 | 80 | 202 | 0.0 | 6.0 | 0.00 | 0.00 | 0.00 | 1014.3 | |
| 20260904072424 | 80 | 224 | 0.0 | 6.0 | 0.00 | 0.00 | 0.00 | 1014.9 | |
| 20260904071903 | 79 | 248 | 0.0 | 6.0 | 0.00 | 0.00 | 0.00 | 1014.9 | |
| 20260904071402 | 79 | 293 | 0.0 | 3.0 | 0.00 | 0.00 | 0.00 | 1014.9 | |
| 20260904070903 | 79 | 223 | 0.0 | 3.0 | 0.00 | 0.00 | 0.00 | 1014.6 | |
| 20260904070402 | 79 | 225 | 0.0 | 0.0 | 0.00 | 0.00 | 0.00 | 1014.3 | |
| 20260904065924 | 78 | 203 | 0.0 | 0.0 | 0.00 | 0.00 | 0.00 | 1014.3 | |
| 20260904065445 | 78 | 225 | 0.0 | 0.0 | 0.00 | 0.00 | 0.00 | 1014.3 | |
| 20260904064903 | 78 | 270 | 0.0 | 0.0 | 0.00 | 0.00 | 0.00 | 1014.6 | |
| 20260904064403 | 78 | 225 | 0.0 | 6.0 | 0.00 | 0.00 | 0.00 | 1014.6 | |
| 20260904063903 | 78 | 180 | 0.0 | 6.0 | 0.00 | 0.00 | 0.00 | 1014.6 | |
| 20260904063403 | 78 | 203 | 0.0 | 0.0 | 0.00 | 0.00 | 0.00 | 1014.6 | |
| 20260904062903 | 78 | 203 | 0.0 | 0.0 | 0.00 | 0.00 | 0.00 | 1014.6 |